Location: Hylvaty SDH
(49.9612°N, 16.4057°E)
Time: 11:58:29
(UTC+01:00)

Tiros 1 - Pass Details

Date: 04 October 2020
Orbit: 630 x 663 km, 48.4° (Epoch: 28 October)

Event Time Altitude Azimuth Distance (km) Brightness Sun altitude
Rises 16:09:25 0° 266° (W) 2,952 11.6 19.6°
Reaches altitude 10° 16:11:44 10° 265° (W) 2,047 11.0 19.3°
Maximum altitude 16:16:27 75° 181° (S) 678 7.7 18.7°
Drops below altitude 10° 16:21:13 10° 96° (E) 2,068 9.3 18.0°
Sets 16:23:34 0° 95° (E) 2,983 10.1 17.7°
